CZ-7A DEB (50324 NORAD) Tracking and Keplerian Element Data

This shows tracking and keplerian element data for the satellite.

Feedback or suggestion? Click here.




ElementValue
Catalog50324
NameCZ-7A DEB
Epoch Orbit36
Epoch Day7.82429579
Epoch Year2022
RAAN259.8742
Inclination19.4722
Eccentricity0.7278556
Argument of Perigee190.8463
Mean Anonmoly134.327
Mean Motion2.31875244
Decay Rate0.00124262
L11 50324U 21129D 22007.82429579 .00124262 -23449-6 62849-2 0 9993
L22 50324 19.4722 259.8742 7278556 190.8463 134.3270 2.31875244 364

Live tracking and technical data element details for CZ-7A DEB (NORAD 50324). CZ-7A DEB can be tracked NOW for your location showing map with azimuth and elevation plus other details from your city location.

Track the satellite on the map from your city or location and see movement details for azimuth, elevation, latitude, longitude, range, height, and movement on the map or in text.







IsCatalogInMostPopularTable: catalog: 50324, numindb: 20
Update: records affected: 1



GetName: 50324 CZ-7A DEB

Hit Count: updated at: Sun, 22 May 2022 03:57:51 GMT